Flag for Italy Weather past 2 weeks in Palermo, Italy

Now
79 °F

Clear.


Feels Like: 81 °F
Forecast: 72 / 85 °F
Wind: 9 mph from West

Location: Palermo / Punta Raisi

Current Time: Sep 24, 2014 at 12:28:44 AM

Latest Report: Sep 23, 2014 at 11:50 PM


Visibility: 10 mi

Pressure: 29.98 "Hg

Humidity: 74%

Dew point: 70 °F

Location of PalermoLocation

Historic Weather in Palermo — Graph

°F

Palermo temperature yesterday

Maximum temperature yesterday: 88 °F (at 11:50 AM)
Minimum temperature yesterday: 73 °F (at 5:20 AM)
Average temperature yesterday: 79 °F

Past Weeks' High & Low Weather Summary

 TemperatureHumidityPressure
High93 °F (Sep 19, 10:20 AM)94% (Sep 21, 2:50 AM)30.09 "Hg (Sep 21, 2:50 AM)
Low68 °F (Sep 14, 6:20 AM)24% (Sep 19, 10:20 AM)29.80 "Hg (Sep 23, 2:50 AM)
Average79 °F70%29.96 "Hg
* Reported Sep 8 11:20 PM — Sep 23 11:20 PM, Palermo, Weather by CustomWeather, © 2014

Note: Actual official high and low records may vary slightly from our data, if they occured in-between our weather recording intervals... More about our weather records

Advertising

Palermo weather history for previous 24 hours

 ConditionsComfort  
Time TempWeatherWind HumidityBarometerVisibility
11:20 PM
Sep 23
77 °FClear.12 mph79%29.98 "Hg10 mi
10:50 PM77 °FPassing clouds.14 mph83%29.98 "HgN/A
10:20 PM77 °FPassing clouds.10 mph83%29.98 "HgN/A
9:50 PM79 °FPassing clouds.12 mph74%29.98 "HgN/A
9:20 PM79 °FPassing clouds.14 mph74%29.95 "HgN/A
8:50 PM79 °FPassing clouds.14 mph70%29.95 "HgN/A
8:20 PM77 °FPassing clouds.5 mph74%29.95 "HgN/A
7:50 PM79 °FScattered clouds.14 mph70%29.92 "HgN/A
7:20 PM79 °FScattered clouds.12 mph74%29.92 "HgN/A
6:50 PM79 °FScattered clouds.10 mph79%29.92 "HgN/A
6:20 PM79 °FScattered clouds.9 mph84%29.89 "HgN/A
5:50 PM79 °FSprinkles. Scattered clouds.14 mph89%29.89 "HgN/A
5:20 PM81 °FSprinkles. Scattered clouds.7 mph79%29.89 "HgN/A
4:50 PM79 °FScattered clouds.7 mph84%29.89 "HgN/A
4:20 PM81 °FScattered clouds.8 mph79%29.89 "HgN/A
3:50 PM81 °FScattered clouds.6 mph74%29.89 "HgN/A
3:20 PM81 °FScattered clouds.6 mph79%29.89 "HgN/A
2:50 PM81 °FPassing clouds.3 mph74%29.89 "HgN/A
2:20 PM81 °FSunny.15 mph70%29.92 "Hg10 mi
1:50 PM82 °FSunny.12 mph70%29.89 "Hg10 mi
12:50 PM82 °FSunny.12 mph62%29.89 "Hg10 mi
12:20 PM86 °FSunny.5 mph46%29.89 "Hg10 mi
11:50 AM88 °FSunny.3 mph31%29.89 "Hg10 mi
11:20 AM86 °FSunny.6 mph43%29.89 "Hg10 mi
10:50 AM84 °FSunny.3 mph45%29.92 "Hg10 mi
10:20 AM84 °FSunny.2 mph45%29.89 "Hg10 mi
9:50 AM84 °FSunny.2 mph48%29.89 "Hg10 mi
9:20 AM82 °FSunny.2 mph55%29.89 "Hg10 mi
8:50 AM81 °FSunny.2 mph66%29.89 "Hg10 mi
8:20 AM79 °FSunny.2 mph70%29.86 "Hg10 mi
7:50 AM77 °FPassing clouds.5 mph69%29.86 "HgN/A
7:20 AM73 °FClear.5 mph78%29.86 "Hg10 mi
6:50 AM75 °FPassing clouds.3 mph74%29.83 "HgN/A
6:20 AM75 °FPassing clouds.6 mph78%29.83 "HgN/A
5:50 AM73 °FClear.8 mph89%29.83 "Hg10 mi
5:20 AM73 °FPassing clouds.5 mph89%29.80 "HgN/A
4:50 AM75 °FClear.2 mph89%29.80 "Hg10 mi
4:20 AM77 °FClear.5 mph89%29.80 "Hg10 mi
3:50 AM77 °FPassing clouds.3 mph83%29.80 "HgN/A
2:50 AM77 °FClear.5 mph83%29.80 "Hg10 mi
2:20 AM77 °FClear.5 mph79%29.83 "Hg10 mi
1:50 AM77 °FClear.1 mph79%29.83 "Hg10 mi
1:20 AM77 °FPassing clouds.1 mph83%29.83 "HgN/A
12:50 AM77 °FPassing clouds.5 mph79%29.83 "HgN/A
12:20 AM77 °FPassing clouds.2 mph83%29.83 "HgN/A
Weather by CustomWeather, © 2014

See weather overviewHow to use our weather pages